[[{"header":{"parameterUnit":"m.s-1","parameterCategory":1,"la1":30.2991,"la2":30.254,"lo1":-89.0895,"lo2":-89.0444,"dy":0.0017,"dx":0.0017,"nx":28,"ny":28,"refTime":"2023-08-22T09:00:00:Z","depth":0,"parameterNumber":2,"parameterNumberName":"U-component_of_WINDS"},"data":[0,0,0,0,0,0,0,0,0,0,0,0,0,0,0,0,0,0,0,0,0,0,0,0,0,0,0,0,0,0,0,0,0,0,0,0,0,0,0,0,0,0,0,0,0,0,0,0,0,0,0,0,0,0,0,0,0,0,1.1349,1.135,0,1.1459,1.146,1.1461,1.1505,1.1505,1.1505,1.1505,1.1615,1.1618,1.1621,0,0,0,0,0,0,0,0,0,0,0,0,0,1.1174,1.1177,1.1349,1.135,1.1351,1.1458,1.146,1.1461,1.1505,1.1505,1.1505,1.1504,1.1614,1.1618,1.1622,0,0,0,0,0,0,0,0,0,0,0,0,0,1.1264,1.1178,1.1348,1.1386,1.1391,1.1458,1.146,1.1462,1.1505,1.1505,1.1505,1.1504,1.1613,1.1618,1.1622,1.1659,0,0,1.1637,1.1639,0,0,0,0,0,0,0,0,1.1258,1.127,1.1379,1.1384,1.1389,1.1468,1.1439,1.1528,1.1506,1.1462,1.1505,1.1504,1.1566,1.1575,1.1596,1.1664,1.1669,1.1637,1.164,1.1642,1.1644,0,0,0,0,0,0,0,1.1252,1.1265,1.1392,1.1381,1.1387,1.1397,1.1409,1.1456,1.1515,1.1466,1.1469,1.1482,1.1569,1.1592,1.1599,1.1671,1.1637,1.1641,1.1644,1.1646,1.1774,1.1775,0,0,0,0,0,0,1.124,1.126,1.1389,1.1395,1.1321,1.14,1.1414,1.1443,1.1514,1.1525,1.1482,1.1483,1.1584,1.1594,1.1603,1.1651,1.1642,1.1647,1.1649,1.1774,1.1774,1.1775,0,0,0,0,0,0,1.1236,1.1251,1.1384,1.1329,1.1346,1.1404,1.1436,1.1445,1.1468,1.1527,1.1537,1.1494,1.1584,1.1597,1.1645,1.1656,1.1649,1.1653,1.1773,1.1774,1.1775,1.1747,0,0,0,0,0,0,1.1231,1.1249,1.1265,1.1329,1.1349,1.1425,1.1436,1.1448,1.1476,1.1479,1.1541,1.1551,1.1584,1.1638,1.165,1.1662,1.1657,1.1772,1.1773,1.1774,1.1747,1.1747,1.1746,0,0,0,0,0,1.1225,1.1252,1.1265,1.1281,1.137,1.1425,1.1437,1.1475,1.1477,1.1492,1.153,1.1549,1.1652,1.1642,1.1656,1.167,1.1772,1.1773,1.1774,1.1747,1.1747,1.1746,0,0,0,0,0,0,1.1187,1.1261,1.1277,1.1326,1.1369,1.1433,1.1453,1.1473,1.1516,1.1517,1.1562,1.1576,1.162,1.165,1.1637,1.1709,1.1714,1.1718,1.1688,1.1688,1.1688,1.168,1.1661,0,0,0,0,0,1.1185,1.1225,1.1287,1.1325,1.1345,1.1395,1.1421,1.1447,1.1493,1.1511,1.1552,1.1596,1.1638,1.1665,1.1707,1.1752,1.1765,1.1768,1.1767,1.1767,1.177,1.1795,1.1797,1.1779,1.1779,1.1779,0,0,1.1181,1.1226,1.1248,1.1318,1.1355,1.1394,1.141,1.1451,1.1481,1.1517,1.1566,1.1597,1.1648,1.1695,1.1718,1.1721,1.1778,1.1768,1.1767,1.1771,1.1797,1.1798,1.18,1.178,1.178,1.1779,0,0,1.1192,1.1231,1.1266,1.1302,1.1357,1.139,1.1399,1.1459,1.1482,1.1531,1.1559,1.1594,1.1666,1.1701,1.1729,1.1753,1.1772,1.1765,1.1763,1.1787,1.1789,1.179,1.1798,1.1801,1.1768,1.1768,1.1768,0,1.1179,1.1241,1.1282,1.1321,1.1351,1.1386,1.1421,1.1454,1.152,1.1539,1.1542,1.1633,1.167,1.1725,1.1731,1.1752,1.1762,1.1758,1.1785,1.1787,1.1789,1.1797,1.18,1.1767,1.1767,1.1767,1.1767,0,1.1222,1.1264,1.1286,1.1349,1.1381,1.1418,1.1463,1.1491,1.1513,1.1546,1.1595,1.1641,1.1692,1.1707,1.173,1.1765,1.1766,1.1777,1.1782,1.1789,1.1797,1.1801,1.1765,1.1765,1.1766,1.1766,0,0,1.1214,1.1299,1.1306,1.1335,1.1398,1.1431,1.1469,1.152,1.1542,1.1586,1.1619,1.1678,1.1689,1.1719,1.1746,1.1767,1.1783,1.1775,1.1777,1.1775,1.1825,1.1816,1.1819,1.1796,1.1797,1.1797,1.182,0,1.1234,1.1305,1.1343,1.1398,1.1436,1.147,1.1503,1.1545,1.1576,1.1612,1.1646,1.1688,1.1698,1.1717,1.174,1.1776,1.1794,1.1775,1.1826,1.1828,1.1812,1.1824,1.1816,1.1835,1.1824,1.1825,1.1825,0,1.1267,1.1311,1.137,1.1428,1.1445,1.1475,1.1524,1.1559,1.1607,1.1628,1.1662,1.1688,1.1729,1.1731,1.1787,1.1774,1.1797,1.1818,1.1819,1.1826,1.1827,1.183,1.1842,1.1845,1.1831,1.183,1.183,0,1.1254,1.1328,1.1373,1.1397,1.1466,1.1485,1.1515,1.1562,1.159,1.1633,1.1652,1.1698,1.1724,1.1759,1.1797,1.1795,1.185,1.1855,1.1868,1.1867,1.1878,1.1877,1.1893,1.1893,1.1892,1.1892,1.1892,0,1.1273,1.1307,1.1368,1.1396,1.1435,1.1478,1.1515,1.1547,1.1589,1.1622,1.1654,1.1684,1.1732,1.1769,1.1798,1.184,1.1852,1.1869,1.1877,1.1867,1.1864,1.1882,1.1882,1.1893,1.1893,1.1893,1.1893,0,1.1266,1.1308,1.1359,1.142,1.1436,1.1463,1.1515,1.1542,1.1574,1.1616,1.1629,1.1679,1.1724,1.1765,1.1824,1.1844,1.1886,1.1896,1.187,1.1874,1.1885,1.1883,1.1914,1.192,1.1915,1.1915,1.1915,0,1.1275,1.1302,1.1366,1.1392,1.1421,1.1461,1.149,1.1532,1.1561,1.1616,1.1637,1.1684,1.1724,1.1793,1.1834,1.1879,1.189,1.1898,1.1897,1.1886,1.189,1.1888,1.1891,1.1897,1.1897,1.1897,1.1897,0,1.1286,1.1306,1.1347,1.1395,1.1429,1.1468,1.1509,1.1528,1.1577,1.1608,1.1654,1.1685,1.1745,1.1791,1.1841,1.187,1.1892,1.1897,1.1902,1.1892,1.1876,1.1885,1.1868,1.1896,1.1896,1.1896,1.1896,1.1896,1.1287,1.1313,1.1362,1.1407,1.1442,1.1479,1.1508,1.1544,1.1584,1.1636,1.1659,1.1705,1.1751,1.182,1.185,1.1886,1.1891,1.1899,1.1901,1.1902,1.19,1.187,1.1895,1.1895,1.1896,1.1896,1.1896,0,1.13,1.1333,1.1374,1.143,1.1465,1.1482,1.1528,1.1556,1.1597,1.1638,1.1677,1.1729,1.1774,1.1819,1.1865,1.1886,1.1897,1.1897,1.1896,1.1902,1.1893,1.1884,1.1887,1.1887,1.1887,1.1887,1.1887,1.1887,1.1311,1.1355,1.1381,1.1443,1.1476,1.1522,1.1546,1.1581,1.1614,1.1672,1.1709,1.1738,1.1781,1.1831,1.1872,1.1884,1.19,1.1897,1.1912,1.1902,1.1903,1.1903,1.1894,1.19,1.19,1.1918,1.1918,1.1918]},{"header":{"parameterUnit":"m.s-1","parameterCategory":1,"la1":30.2991,"la2":30.254,"lo1":-89.0895,"lo2":-89.0444,"dy":0.0017,"dx":0.0017,"nx":28,"ny":28,"refTime":"2023-08-22T09:00:00:Z","depth":0,"parameterNumber":3,"parameterNumberName":"V-component_of_WINDS"},"data":[0,0,0,0,0,0,0,0,0,0,0,0,0,0,0,0,0,0,0,0,0,0,0,0,0,0,0,0,0,0,0,0,0,0,0,0,0,0,0,0,0,0,0,0,0,0,0,0,0,0,0,0,0,0,0,0,0,0,3.2711,3.271,0,3.2632,3.2631,3.263,3.2592,3.2592,3.2592,3.2592,3.2503,3.2501,3.2499,0,0,0,0,0,0,0,0,0,0,0,0,0,3.2821,3.282,3.2711,3.271,3.2709,3.2632,3.2631,3.263,3.2592,3.2592,3.2592,3.2592,3.2504,3.2501,3.2498,0,0,0,0,0,0,0,0,0,0,0,0,0,3.2761,3.2819,3.2711,3.2681,3.2677,3.2633,3.2631,3.263,3.2592,3.2592,3.2592,3.2592,3.2505,3.2502,3.2498,3.2475,0,0,3.2487,3.2486,0,0,0,0,0,0,0,0,3.2764,3.2757,3.2686,3.2683,3.2679,3.2622,3.2638,3.2578,3.2591,3.2624,3.2592,3.2592,3.2542,3.2536,3.252,3.2471,3.2467,3.2487,3.2485,3.2483,3.2482,0,0,0,0,0,0,0,3.2769,3.276,3.268,3.2685,3.2681,3.2669,3.266,3.2626,3.2583,3.2621,3.2618,3.261,3.254,3.2524,3.2518,3.2466,3.2487,3.2484,3.2482,3.248,3.2395,3.2395,0,0,0,0,0,0,3.2779,3.2764,3.2682,3.2677,3.2723,3.2667,3.2657,3.264,3.2584,3.2575,3.261,3.2608,3.253,3.2522,3.2515,3.2485,3.2483,3.248,3.2478,3.2395,3.2395,3.2395,0,0,0,0,0,0,3.2781,3.2772,3.2685,3.272,3.2708,3.2665,3.2646,3.2638,3.2622,3.2575,3.2567,3.2602,3.253,3.252,3.2486,3.2481,3.2478,3.2475,3.2395,3.2395,3.2395,3.2425,0,0,0,0,0,0,3.2785,3.2773,3.2765,3.272,3.2706,3.266,3.2645,3.2637,3.2617,3.2614,3.2566,3.2557,3.2529,3.2492,3.2483,3.2477,3.2472,3.2395,3.2395,3.2395,3.2425,3.2426,3.2428,0,0,0,0,0,3.2789,3.2775,3.2765,3.2756,3.2696,3.266,3.2652,3.2622,3.2617,3.2608,3.2578,3.2559,3.2484,3.2489,3.2478,3.2471,3.2395,3.2395,3.2395,3.2424,3.2426,3.2428,0,0,0,0,0,0,3.2818,3.2769,3.2757,3.2729,3.2699,3.2653,3.2641,3.2625,3.2593,3.2592,3.2553,3.2543,3.2512,3.2488,3.2494,3.2446,3.2438,3.2435,3.2463,3.2465,3.2466,3.2473,3.2469,0,0,0,0,0,3.2822,3.2799,3.2756,3.2735,3.2721,3.2684,3.2667,3.2647,3.2613,3.26,3.2567,3.2533,3.2502,3.2482,3.2451,3.2421,3.2409,3.2411,3.2413,3.2414,3.2412,3.2395,3.2395,3.2394,3.2394,3.2394,0,0,3.2828,3.2798,3.2786,3.274,3.2715,3.269,3.2673,3.2647,3.2628,3.2595,3.2562,3.2537,3.2497,3.2465,3.245,3.2444,3.241,3.2414,3.2415,3.2412,3.2395,3.2395,3.2395,3.2393,3.2393,3.2393,0,0,3.2827,3.2803,3.2784,3.2759,3.2722,3.2698,3.2693,3.265,3.2633,3.2601,3.2576,3.2551,3.2498,3.247,3.245,3.2441,3.2421,3.2431,3.2439,3.2423,3.2423,3.2423,3.2419,3.2419,3.2429,3.243,3.243,0,3.2839,3.2803,3.2775,3.2751,3.2732,3.2704,3.2683,3.266,3.2613,3.2599,3.2595,3.2529,3.2499,3.2462,3.246,3.2444,3.2436,3.2436,3.2426,3.2425,3.2424,3.2421,3.242,3.2431,3.2431,3.2431,3.2431,0,3.282,3.2795,3.2783,3.2743,3.2722,3.2699,3.2666,3.2648,3.263,3.2606,3.2572,3.2537,3.2498,3.2488,3.2468,3.2447,3.2445,3.2433,3.2424,3.2427,3.2422,3.2421,3.2433,3.2433,3.2432,3.2432,0,0,3.2834,3.278,3.2776,3.2757,3.2715,3.2694,3.267,3.2636,3.2621,3.259,3.2568,3.2525,3.2515,3.2491,3.2469,3.2455,3.245,3.2444,3.2443,3.2447,3.2424,3.2433,3.2432,3.2438,3.2437,3.2437,3.2427,0,3.2827,3.2786,3.276,3.2728,3.2705,3.2679,3.2658,3.2629,3.2606,3.2581,3.2554,3.2524,3.2513,3.2499,3.2484,3.2454,3.2445,3.2454,3.2415,3.2414,3.2426,3.243,3.2439,3.2432,3.2426,3.2425,3.2425,0,3.2813,3.2786,3.2753,3.2715,3.2704,3.2686,3.2653,3.263,3.2596,3.258,3.2555,3.2533,3.2505,3.2499,3.2459,3.2467,3.2449,3.2432,3.2431,3.2426,3.242,3.2424,3.2429,3.2428,3.2422,3.2423,3.2423,0,3.2827,3.2782,3.2757,3.2742,3.2696,3.2685,3.2665,3.2631,3.2612,3.2582,3.2569,3.2536,3.2517,3.249,3.2459,3.2458,3.2423,3.2414,3.2407,3.2408,3.24,3.2401,3.2402,3.239,3.239,3.239,3.239,0,3.2822,3.2802,3.2763,3.2747,3.2724,3.2695,3.2672,3.265,3.2621,3.2599,3.2573,3.2553,3.2513,3.2487,3.2463,3.2434,3.2425,3.241,3.2404,3.2413,3.2415,3.24,3.24,3.239,3.239,3.239,3.239,0,3.2833,3.2806,3.2776,3.2737,3.2727,3.2712,3.2677,3.266,3.2637,3.2609,3.2601,3.2563,3.2532,3.2499,3.2455,3.2438,3.241,3.2401,3.2423,3.2419,3.2414,3.2415,3.2405,3.2402,3.2393,3.2393,3.2394,0,3.2831,3.2816,3.2776,3.2761,3.2743,3.2719,3.2701,3.267,3.2652,3.2613,3.2601,3.2568,3.254,3.2491,3.2458,3.2425,3.2414,3.2413,3.2409,3.2418,3.2414,3.2415,3.2414,3.2414,3.2415,3.2415,3.2415,0,3.2831,3.2819,3.2795,3.2766,3.2746,3.2721,3.2695,3.2683,3.2648,3.2628,3.2597,3.2576,3.2534,3.2501,3.2464,3.2441,3.2422,3.2417,3.2414,3.2422,3.2435,3.2428,3.2426,3.2417,3.2417,3.2417,3.2417,3.2417,3.2835,3.2821,3.2792,3.2766,3.2744,3.2721,3.2703,3.2679,3.2654,3.2619,3.2602,3.2571,3.2537,3.2487,3.2464,3.2438,3.2433,3.2428,3.2426,3.2426,3.2428,3.244,3.2431,3.2431,3.2431,3.2431,3.2431,0,3.2834,3.2814,3.2791,3.2757,3.2737,3.2724,3.2695,3.2677,3.2652,3.2624,3.2598,3.2563,3.2531,3.2497,3.2464,3.2449,3.244,3.2441,3.2442,3.2437,3.2435,3.2441,3.245,3.245,3.245,3.245,3.245,3.245,3.2831,3.2807,3.2792,3.2756,3.2735,3.2708,3.2692,3.267,3.2648,3.2611,3.2586,3.2565,3.2534,3.2498,3.2468,3.2459,3.2447,3.2452,3.244,3.2438,3.2437,3.2435,3.2441,3.245,3.245,3.2444,3.2444,3.2444]}]]